Wind_Speed
34 32 31 29 27 26 23 21 19 17 16 17 18 18 18 18 19 20 21 22 22 22 22 22 21 20 19 17 17 16 16 16 15 15 14 14 12 11 10 10 9 8 8 7 7 7 7 7 6 6 6 7 7 7 7 8 8 9 10 11 12 13 15
35 34 33 32 31 29 27 24 22 20 18 17 17 17 17 17 18 19 20 21 22 23 23 22 21 20 19 18 19 18 18 18 17 17 16 15 14 13 12 12 11 10 10 9 8 9 8 8 8 7 7 8 8 8 8 8 8 9 10 11 12 13 14
37 36 36 35 35 32 28 26 24 22 20 19 18 17 17 17 17 17 18 19 21 22 23 23 22 21 20 20 20 20 20 20 19 19 18 17 16 15 15 15 14 13 12 11 11 11 10 10 9 9 9 9 9 9 8 8 8 9 10 11 12 13 14
38 37 37 37 35 31 28 27 26 24 23 21 19 18 17 17 17 18 18 19 20 22 22 22 22 21 21 21 21 21 21 21 21 21 20 19 18 18 18 18 17 16 14 14 14 13 12 12 11 11 10 10 10 10 9 9 9 9 10 11 12 13 14
41 39 38 37 33 30 29 29 28 26 23 21 20 19 18 17 17 17 18 19 20 20 20 20 20 22 22 22 22 21 21 22 22 22 21 21 21 21 21 20 19 18 17 17 16 15 14 14 13 13 12 12 12 12 11 10 9 10 11 12 13 13 14
46 44 42 37 34 32 32 33 30 27 24 22 21 19 18 18 17 17 17 18 19 19 19 20 20 21 23 24 25 24 23 23 23 23 23 23 23 23 22 22 21 20 19 19 19 17 16 16 15 14 14 14 13 13 13 12 11 11 12 13 13 13 14
47 46 43 40 38 37 37 36 31 27 25 23 22 21 21 20 19 18 17 17 17 18 19 20 20 20 22 23 24 25 25 25 24 24 24 24 24 24 23 23 23 22 21 21 20 19 18 17 16 16 15 15 15 15 14 14 13 12 13 14 14 14 14
47 45 43 42 40 39 39 37 33 29 26 25 24 24 23 21 20 19 18 17 17 18 19 20 20 20 20 20 21 23 24 24 25 25 25 25 25 25 25 25 24 23 23 23 22 21 20 19 18 17 17 16 16 16 16 15 15 14 14 15 15 15 15
48 47 45 44 42 39 37 36 35 31 28 27 26 25 24 23 22 21 19 18 18 18 19 19 19 19 19 19 20 20 21 23 24 25 26 27 26 26 26 26 25 25 24 24 23 23 22 21 20 19 19 18 18 17 17 17 16 16 16 16 16 16 16
52 50 48 46 45 42 39 36 35 33 31 30 28 27 26 25 24 23 22 21 20 19 19 19 19 19 19 20 19 19 20 22 24 25 26 27 27 27 27 27 27 26 25 25 24 24 23 22 22 21 20 20 19 19 19 18 18 18 17 17 17 17 17
55 51 49 48 45 43 41 37 35 35 34 32 30 28 28 27 26 24 23 23 21 20 19 20 20 20 20 20 19 19 20 22 23 25 26 27 27 28 28 28 28 27 26 26 25 24 24 23 23 22 21 22 22 21 21 20 19 19 19 19 18 19 19
56 51 50 49 46 44 41 38 37 37 36 34 33 30 29 29 28 26 25 24 22 21 21 21 21 21 21 20 20 20 20 21 23 25 27 28 27 27 28 29 29 29 28 27 26 25 24 24 24 23 22 23 23 23 23 22 21 21 21 20 20 20 20
56 54 54 53 50 48 45 41 41 40 38 37 35 32 31 31 30 29 27 26 24 23 23 23 22 22 21 21 21 21 21 21 22 24 26 27 27 26 27 29 29 29 29 28 28 27 26 26 25 24 23 24 25 25 25 23 22 22 22 22 22 22 22
58 57 57 55 52 50 47 45 44 42 40 39 37 35 34 33 33 32 30 28 27 26 26 25 24 23 22 22 23 23 23 22 21 22 23 25 26 26 27 29 30 30 30 30 30 29 28 28 27 25 25 25 27 27 26 25 23 23 23 24 24 24 24
61 61 60 57 54 51 49 48 47 45 43 41 39 38 38 37 36 35 33 31 29 29 28 28 27 26 25 25 25 24 23 22 22 21 22 23 25 27 28 29 30 31 31 31 32 31 30 30 29 28 27 27 28 29 28 26 25 24 24 25 26 26 25
67 65 64 60 56 54 51 49 48 47 45 43 42 41 41 41 39 39 36 33 32 31 30 30 29 28 27 26 26 24 23 22 22 21 22 23 25 26 28 29 30 31 31 33 33 33 32 32 31 30 29 29 30 30 30 28 26 25 26 27 27 27 27
69 67 64 60 56 53 51 50 49 48 47 46 46 45 44 44 43 41 39 35 34 33 33 32 31 30 29 28 27 25 24 23 23 22 23 23 25 26 28 30 31 31 32 33 34 34 34 34 33 33 32 32 32 32 31 30 28 27 27 28 29 29 28
69 68 65 61 59 56 53 51 51 50 50 49 48 47 47 47 45 43 41 38 36 35 35 34 33 32 31 29 28 27 26 24 24 24 24 24 25 27 28 30 31 32 33 34 34 34 34 35 35 35 34 34 34 34 33 32 30 29 29 30 31 31 31
67 66 65 62 60 58 55 53 53 52 52 52 51 50 50 50 48 46 43 41 38 37 36 35 34 33 32 31 30 29 27 26 26 26 26 26 26 26 28 30 32 33 35 35 34 34 35 35 36 36 36 36 36 35 35 34 33 33 32 32 33 33 33
64 61 61 59 58 59 56 54 54 54 54 53 53 53 53 52 50 48 45 42 39 38 38 37 36 34 33 33 32 31 29 28 28 28 27 27 27 27 28 30 32 33 35 35 36 36 36 37 36 36 36 36 37 37 36 36 36 36 35 35 35 36 36
68 63 62 61 60 60 59 58 57 56 55 55 56 56 55 53 51 49 46 44 41 40 39 38 37 36 35 35 34 33 31 31 31 30 29 29 29 28 29 31 32 33 35 36 37 38 38 38 37 37 37 37 38 38 37 37 38 38 37 38 38 39 39
73 68 65 64 62 62 61 60 59 57 57 58 58 58 56 55 52 50 47 45 43 41 40 39 38 37 37 37 36 35 34 33 32 31 31 30 30 30 30 32 33 34 35 36 38 39 39 39 38 38 38 37 37 38 37 38 39 39 39 40 41 42 43
77 72 68 65 63 63 62 61 59 58 59 61 61 59 58 56 53 50 48 47 44 42 41 40 40 39 40 40 38 37 37 36 34 33 33 32 32 31 32 33 34 35 36 37 38 39 40 40 40 39 38 37 37 38 38 38 39 40 40 41 42 43 44
80 77 73 70 68 66 64 62 61 60 62 63 63 61 59 56 53 51 50 48 46 45 43 42 42 42 43 43 40 39 39 37 36 35 34 34 34 33 33 33 34 36 37 37 38 40 41 41 41 41 40 39 38 38 39 39 40 41 41 42 43 44 45
80 78 75 73 72 70 67 64 63 63 65 66 64 62 59 57 54 52 51 49 49 47 46 45 44 45 46 45 42 41 41 39 37 37 36 36 35 34 34 34 35 36 37 38 39 41 42 42 43 43 42 41 40 40 40 40 41 42 43 43 43 44 45
81 79 77 74 72 70 69 67 65 66 68 68 65 62 59 57 55 54 53 52 52 50 49 49 48 47 48 46 44 44 43 41 39 39 38 38 37 36 35 35 35 36 37 38 39 41 42 43 43 44 44 44 42 42 42 42 42 43 44 45 44 45 45
81 80 79 77 74 72 71 69 68 69 70 68 65 62 59 57 57 56 56 55 54 53 53 51 49 49 49 48 47 47 45 43 41 41 39 39 38 37 36 36 36 37 37 38 39 40 41 42 43 44 45 45 44 44 44 44 44 45 45 45 44 44 44
83 81 80 79 77 74 73 71 71 71 71 68 65 63 60 59 59 59 59 58 56 55 55 53 51 51 51 50 49 49 46 43 43 42 40 39 39 38 38 37 37 38 38 38 39 40 41 42 43 44 45 46 47 47 47 47 47 47 47 46 45 44 44
84 82 80 79 77 76 75 74 73 72 71 68 66 63 61 61 62 62 61 60 58 57 56 55 53 53 52 51 50 49 46 45 44 42 41 40 40 39 39 38 38 38 38 38 39 40 41 41 43 45 46 47 48 49 50 50 49 49 49 48 46 46 46
86 84 82 79 78 77 77 75 74 73 71 69 67 65 63 64 64 64 63 62 59 57 57 56 55 54 53 52 51 49 47 46 45 43 42 42 41 40 40 39 39 39 38 38 39 40 41 41 42 44 46 48 49 50 51 51 51 50 50 50 48 47 47
88 86 83 81 80 79 77 76 75 73 71 70 68 66 66 66 65 65 64 62 59 58 59 58 55 54 54 53 51 50 48 47 46 44 44 44 42 41 40 40 39 39 39 39 39 40 41 42 42 44 45 47 49 51 52 53 53 52 52 51 50 49 48
91 88 84 82 81 79 77 76 75 74 72 71 69 68 68 67 67 66 65 62 60 61 60 57 55 56 55 54 53 52 50 48 47 46 45 45 44 43 42 41 40 40 41 41 41 41 42 43 43 44 45 46 48 50 52 53 54 53 53 53 52 51 50
92 88 85 83 82 80 78 76 75 74 73 72 71 70 69 68 68 67 65 63 63 61 59 57 56 57 57 56 54 53 51 49 48 47 46 46 45 44 43 42 42 42 42 43 42 42 43 43 44 44 45 46 47 49 50 52 53 53 53 53 53 53 51
92 89 86 84 82 80 79 77 76 75 74 73 72 71 70 69 68 67 66 65 63 61 59 58 59 59 59 57 55 54 52 50 49 48 48 48 47 45 44 43 43 43 44 44 43 43 43 44 45 46 46 47 47 48 49 50 51 52 52 53 54 53 53
91 89 87 85 83 81 79 78 77 76 75 74 73 72 71 70 69 68 67 66 64 62 62 61 61 60 60 58 56 55 53 51 51 50 50 49 47 46 45 44 44 44 44 44 44 44 44 45 45 47 47 48 49 49 50 50 51 51 51 52 53 53 53
91 89 88 86 84 82 80 79 78 77 76 76 74 73 72 71 70 69 68 67 65 65 64 63 63 62 61 59 58 56 54 53 53 52 51 49 48 47 46 46 45 45 44 44 45 45 45 45 45 46 47 48 48 50 50 50 50 50 50 51 52 52 53
89 88 87 86 85 83 81 80 79 78 77 77 76 74 73 72 71 69 68 68 67 67 66 65 64 63 62 61 58 56 55 55 54 53 52 50 48 47 47 47 46 45 45 46 46 46 46 46 46 46 46 46 47 48 49 48 48 49 50 50 51 52 53
88 88 87 86 85 84 83 81 80 79 79 77 77 76 75 73 72 70 69 69 68 68 67 66 65 64 63 61 59 56 56 56 55 53 52 50 49 48 48 48 47 46 46 47 47 46 46 46 46 46 46 45 45 46 47 47 47 48 48 49 50 51 52
Wind_Direction
191 194 200 202 204 207 209 209 211 214 209 198 191 187 186 184 182 183 185 188 191 196 205 212 216 220 223 225 226 226 225 225 222 221 223 226 228 229 229 232 236 243 256 269 281 290 294 299 302 301 299 297 297 298 300 307 316 325 332 337 342 347 353
194 196 199 202 205 207 207 207 208 210 212 210 203 196 191 187 186 185 186 188 191 194 201 208 212 218 223 226 229 230 231 231 231 229 228 228 230 232 235 238 240 244 253 264 274 280 284 289 294 295 294 294 295 296 299 303 310 318 326 331 337 343 350
197 198 200 201 204 206 207 208 208 208 210 213 214 209 201 193 189 188 188 190 192 196 200 204 207 211 217 224 228 231 232 233 235 235 234 233 233 234 237 240 242 245 251 259 266 271 276 280 285 288 289 289 290 292 294 297 304 310 317 324 331 338 344
198 201 205 205 206 207 209 211 210 210 211 210 213 215 212 205 196 191 190 192 194 198 201 203 204 205 210 218 224 230 233 234 236 237 237 237 236 236 239 241 243 246 250 255 260 265 271 276 279 283 286 286 286 287 288 289 293 301 309 317 325 331 338
198 201 204 207 208 208 214 217 213 212 213 212 213 215 217 217 212 204 197 196 197 200 204 205 204 204 206 212 219 226 232 235 237 239 239 238 238 238 240 243 245 247 250 253 257 261 266 270 274 279 282 284 284 283 283 283 286 292 301 309 318 325 331
200 201 200 204 206 206 215 222 219 215 214 215 216 216 219 223 223 220 210 203 203 202 205 207 206 206 206 209 213 218 224 231 235 238 240 240 239 239 241 243 245 247 249 252 255 258 261 265 270 274 277 280 281 280 280 279 280 285 292 302 311 319 325
205 204 201 203 204 205 212 219 222 221 217 218 219 218 220 222 223 225 222 216 211 207 207 210 211 212 211 212 215 217 220 225 228 234 239 242 243 242 242 243 245 246 248 251 255 257 260 263 266 269 273 275 277 277 277 275 276 278 285 294 302 310 318
208 208 206 206 207 208 211 215 221 224 221 219 222 222 222 223 223 225 227 227 222 217 215 215 215 216 217 218 220 222 225 227 227 230 234 239 243 244 244 245 245 246 248 251 254 257 259 262 264 266 268 271 273 274 274 272 272 273 278 286 294 302 310
210 211 211 210 210 211 212 215 220 224 224 223 224 226 226 225 225 224 225 228 228 225 223 222 222 221 221 222 222 224 228 232 234 234 234 236 240 244 246 247 248 247 248 250 252 255 257 260 262 264 266 268 270 271 271 270 270 270 272 278 286 293 300
212 212 213 213 213 214 214 217 221 223 225 226 225 227 228 227 226 225 224 225 227 227 227 227 227 225 225 225 224 222 223 229 236 239 239 238 239 241 244 247 249 249 249 250 251 253 256 258 261 263 265 267 268 268 268 268 268 267 269 273 279 286 292
214 213 214 217 218 219 219 220 223 224 226 229 228 227 229 230 230 227 226 226 227 229 229 229 229 230 231 232 230 227 223 224 230 236 240 241 241 241 242 245 248 250 250 251 251 253 254 256 259 261 263 265 266 266 266 266 267 266 267 270 274 279 285
215 214 215 218 220 222 224 224 225 226 228 231 231 230 229 231 232 231 229 228 227 229 231 231 232 234 235 237 237 234 230 226 226 231 237 242 243 242 243 244 246 248 250 251 252 252 253 254 256 258 260 263 264 264 264 265 266 267 268 269 271 275 279
216 216 216 217 218 220 222 223 225 228 230 232 233 232 231 230 232 232 231 230 228 230 232 233 235 235 236 238 241 241 240 237 233 233 236 240 243 244 244 245 246 248 249 250 251 251 252 252 253 255 258 260 261 262 263 264 265 266 268 268 269 272 276
218 219 219 219 218 220 221 221 224 226 228 231 233 234 233 231 231 231 230 229 228 229 232 233 234 235 235 237 240 242 244 246 245 242 240 240 242 243 243 245 246 246 247 248 250 251 251 252 252 252 255 257 259 261 262 263 264 265 267 268 269 270 273
220 220 222 222 221 221 221 221 223 225 227 229 231 232 233 233 232 231 230 227 227 229 231 233 234 235 235 236 240 244 247 251 253 253 250 246 244 242 241 242 244 245 245 246 247 249 250 251 252 251 252 254 257 259 261 262 263 264 266 267 268 269 271
220 220 222 222 221 222 222 222 223 224 226 227 229 230 232 233 232 232 231 228 228 229 231 233 235 236 237 238 242 246 249 251 254 256 256 253 249 246 243 242 243 244 245 245 246 247 248 250 252 252 251 253 255 258 260 261 262 264 265 266 267 268 270
220 221 222 223 222 223 224 225 225 225 225 226 227 228 230 233 232 233 233 230 229 230 232 233 235 237 238 239 242 245 247 249 252 254 254 254 253 252 248 245 243 243 244 245 245 246 247 248 251 252 253 253 254 257 259 260 262 263 264 265 267 268 269
221 222 222 222 222 221 221 223 223 224 225 225 227 227 229 232 232 233 233 231 229 230 232 234 235 237 239 240 242 244 246 248 250 252 253 253 253 253 252 250 246 244 244 245 245 246 247 247 249 251 252 254 255 257 259 260 261 261 262 264 265 266 267
221 224 224 224 224 222 221 222 222 222 224 224 225 227 228 230 231 232 233 232 230 231 233 235 236 239 241 242 243 245 246 248 250 252 253 254 254 254 254 253 250 247 246 245 245 246 247 248 249 250 251 252 255 257 258 260 260 259 260 261 263 264 266
220 222 222 223 225 222 220 222 222 222 223 223 224 226 227 229 230 231 233 232 231 231 233 235 237 239 242 243 243 245 247 247 248 250 252 254 255 255 254 253 252 251 249 248 247 246 246 247 248 250 251 252 253 255 256 258 259 259 260 261 262 263 264
222 222 222 223 224 221 219 220 221 221 222 223 223 225 226 228 229 230 232 232 231 231 233 235 237 239 241 243 244 245 246 247 249 251 253 255 255 255 254 254 253 252 251 250 248 247 247 247 247 248 250 252 253 254 254 256 257 259 260 261 262 263 263
222 223 224 224 224 221 221 221 220 220 222 222 224 225 227 228 229 229 231 231 231 231 232 234 237 238 240 242 243 245 246 248 250 252 254 255 256 256 255 255 254 253 252 250 249 249 249 248 248 248 249 251 254 255 256 256 257 258 259 261 263 263 264
221 221 223 224 224 223 222 222 221 221 223 224 225 227 227 228 229 229 230 231 231 231 232 233 236 238 240 241 243 245 247 248 250 252 254 256 257 257 258 257 257 256 254 252 250 250 250 249 249 249 250 251 253 255 256 257 258 258 258 260 262 263 264
219 221 223 225 226 225 224 222 221 223 225 227 228 228 229 229 229 229 229 230 231 231 231 232 234 237 239 241 242 244 247 248 250 252 254 257 258 260 261 261 260 258 257 254 252 251 250 250 250 250 250 250 251 253 255 256 257 258 258 259 260 262 263
218 220 222 224 226 225 225 223 223 223 226 228 229 229 229 230 230 230 229 229 231 231 230 230 232 235 238 240 241 244 246 247 249 251 254 256 259 261 263 263 262 261 259 257 255 254 253 251 251 250 250 249 250 252 253 255 255 256 257 257 258 260 261
218 219 220 222 224 224 224 224 223 224 226 228 229 229 230 230 231 230 230 230 231 231 230 230 231 233 237 239 240 242 244 246 248 251 253 256 259 262 264 264 264 262 260 259 258 257 256 255 253 252 252 251 251 251 252 254 254 256 256 257 257 258 260
220 219 219 221 223 224 224 224 224 225 227 228 230 230 230 230 230 231 231 231 231 231 231 232 232 233 236 239 240 241 244 246 249 252 254 257 260 262 265 266 265 263 261 260 260 259 259 258 256 255 254 253 252 251 251 252 253 255 257 257 258 260 261
221 220 219 220 222 223 224 224 224 226 228 229 229 229 229 229 230 231 232 232 231 232 232 233 233 234 236 238 240 243 245 247 250 252 255 258 260 263 265 266 266 264 262 260 260 261 261 260 258 256 255 254 252 251 251 252 253 255 257 258 259 260 262
222 221 220 220 221 221 223 224 225 226 228 228 229 229 229 229 230 231 232 232 231 232 233 234 234 235 237 239 241 244 246 248 251 254 256 258 260 263 265 266 266 265 262 260 260 261 261 261 259 258 256 254 253 253 252 253 253 255 258 259 260 261 262
223 223 221 220 221 221 222 223 225 226 228 228 229 229 228 229 231 232 232 232 232 232 234 235 235 237 238 239 242 244 246 248 251 253 255 258 260 262 265 267 267 264 262 260 259 260 260 261 260 259 257 256 255 254 254 254 255 256 257 259 260 262 263
223 223 222 221 222 222 222 223 224 226 227 228 229 229 229 230 231 232 233 233 232 232 233 234 236 237 239 240 242 244 246 248 251 253 255 257 260 263 265 266 266 263 261 259 258 259 259 260 260 259 258 257 256 256 255 255 256 256 257 259 260 262 263
223 223 222 222 223 223 222 223 224 225 226 227 227 228 229 230 231 232 233 233 233 233 234 235 235 237 238 239 241 243 246 248 250 253 255 257 260 263 265 266 265 263 260 259 258 257 258 258 259 259 258 258 257 257 257 257 258 258 259 260 260 261 262
223 223 222 223 223 224 223 224 224 225 226 226 227 228 229 230 231 232 233 233 233 234 234 234 235 236 238 239 241 244 246 249 251 252 255 257 260 263 265 266 266 264 261 259 258 257 257 258 258 258 258 258 258 258 259 259 259 260 260 260 261 261 262
222 222 223 223 223 224 224 224 225 225 226 227 227 228 229 230 231 232 233 234 234 235 235 234 235 237 239 240 242 245 247 249 251 252 255 257 260 263 265 267 267 265 263 261 260 259 259 259 258 258 258 258 258 258 259 259 260 260 261 261 262 262 263
221 222 222 223 224 224 224 225 225 226 226 227 228 229 230 231 231 232 233 234 234 235 235 235 236 238 240 242 244 246 248 249 251 252 255 258 260 263 265 266 266 265 263 262 260 260 260 260 260 259 259 259 259 259 259 259 260 260 261 261 262 263 264
221 221 222 222 223 224 225 225 226 226 227 228 228 229 230 231 232 233 234 234 235 235 236 236 238 239 241 243 245 247 249 250 251 253 256 258 261 263 265 266 266 265 263 261 260 259 260 260 260 261 261 262 262 262 261 262 262 262 262 262 263 263 264
221 222 222 223 223 224 225 226 227 227 228 228 228 229 230 231 232 233 234 235 236 236 237 238 240 242 243 245 247 249 250 251 252 254 257 259 261 263 264 266 266 265 263 261 260 260 260 261 261 262 262 263 264 264 265 265 264 264 264 263 263 264 264
222 223 224 224 223 224 224 225 227 227 228 229 229 229 230 231 232 233 234 236 237 238 239 240 241 243 245 247 248 249 251 252 254 255 257 259 260 262 263 264 265 264 262 261 260 260 260 261 262 262 263 263 264 265 266 266 265 264 265 265 265 265 265
Height
10976 10978 10982 10985 10989 10992 10993 10993 10993 10993 10993 10993 10993 10993 10994 10994 10995 10996 10997 10999 11001 11003 11005 11007 11010 11011 11013 11015 11017 11018 11019 11020 11021 11022 11023 11024 11024 11025 11026 11027 11028 11028 11029 11029 11029 11030 11030 11030 11029 11029 11029 11029 11029 11029 11028 11028 11028 11028 11028 11027 11026 11026 11025
10973 10976 10981 10984 10987 10989 10989 10989 10990 10991 10991 10992 10992 10993 10993 10994 10995 10995 10997 10998 10999 11001 11003 11005 11007 11010 11012 11014 11015 11016 11018 11019 11020 11021 11022 11023 11024 11024 11025 11026 11027 11027 11028 11028 11029 11029 11029 11029 11029 11029 11028 11028 11028 11028 11028 11028 11028 11028 11027 11027 11026 11026 11025
10969 10973 10978 10981 10983 10984 10985 10986 10987 10988 10989 10990 10991 10992 10993 10993 10994 10995 10996 10997 10998 11000 11001 11003 11005 11007 11009 11011 11013 11014 11016 11017 11018 11019 11020 11022 11023 11023 11024 11024 11025 11026 11027 11027 11028 11028 11028 11028 11028 11028 11028 11028 11028 11028 11027 11027 11027 11027 11027 11027 11026 11026 11025
10967 10971 10974 10976 10978 10980 10982 10983 10984 10986 10987 10988 10989 10991 10992 10993 10993 10995 10995 10996 10998 10998 11000 11001 11003 11005 11007 11009 11010 11012 11013 11015 11016 11017 11019 11020 11021 11022 11022 11023 11024 11024 11025 11026 11026 11027 11027 11027 11027 11027 11027 11027 11027 11027 11027 11027 11027 11027 11027 11027 11026 11026 11025
10962 10966 10970 10972 10974 10977 10980 10980 10981 10982 10984 10986 10987 10989 10990 10992 10993 10993 10994 10995 10996 10997 10999 11000 11002 11003 11005 11006 11008 11010 11011 11012 11014 11015 11017 11018 11019 11020 11020 11021 11022 11023 11024 11024 11025 11025 11026 11026 11026 11026 11026 11026 11026 11026 11026 11026 11026 11026 11026 11026 11026 11025 11025
10957 10960 10964 10968 10970 10974 10977 10978 10978 10980 10982 10984 10985 10987 10989 10990 10992 10993 10994 10994 10995 10997 10998 10999 11000 11001 11002 11003 11004 11006 11008 11010 11011 11013 11014 11015 11016 11017 11018 11019 11020 11021 11022 11022 11023 11024 11024 11024 11025 11025 11025 11025 11025 11025 11025 11025 11025 11025 11025 11025 11025 11025 11024
10953 10957 10961 10964 10967 10970 10974 10976 10976 10977 10979 10981 10983 10985 10986 10988 10990 10991 10993 10994 10994 10995 10996 10997 10998 10999 11000 11001 11002 11004 11005 11006 11008 11010 11012 11013 11014 11015 11016 11017 11018 11019 11019 11020 11021 11022 11022 11023 11023 11023 11024 11024 11024 11024 11024 11024 11024 11024 11024 11024 11024 11024 11024
10951 10954 10957 10960 10962 10965 10967 10970 10973 10975 10977 10979 10980 10982 10983 10985 10987 10989 10991 10992 10993 10994 10995 10995 10996 10997 10999 11000 11001 11002 11003 11004 11006 11007 11009 11010 11011 11013 11014 11014 11015 11016 11017 11018 11019 11020 11020 11021 11021 11022 11022 11022 11022 11023 11023 11023 11023 11023 11023 11023 11023 11023 11023
10947 10950 10953 10956 10958 10960 10962 10964 10969 10972 10974 10976 10978 10979 10981 10983 10984 10986 10988 10990 10992 10993 10994 10994 10995 10996 10997 10998 10999 11001 11002 11003 11004 11005 11006 11007 11009 11010 11011 11012 11013 11014 11015 11016 11016 11017 11018 11019 11019 11020 11020 11020 11021 11021 11021 11021 11021 11022 11022 11022 11022 11022 11022
10941 10944 10948 10951 10954 10957 10959 10962 10966 10969 10971 10973 10975 10976 10978 10980 10981 10983 10985 10987 10989 10991 10992 10993 10994 10994 10995 10996 10997 10999 11000 11001 11002 11002 11004 11005 11006 11007 11008 11010 11010 11011 11012 11013 11014 11015 11016 11017 11017 11018 11018 11019 11019 11019 11019 11019 11020 11020 11021 11021 11021 11021 11021
10934 10940 10944 10947 10950 10953 10957 10960 10963 10965 10967 10969 10972 10974 10975 10977 10979 10981 10983 10984 10986 10989 10990 10991 10992 10993 10993 10994 10995 10996 10998 10999 10999 11000 11001 11001 11003 11004 11006 11007 11008 11009 11010 11011 11012 11013 11013 11014 11015 11016 11016 11016 11016 11016 11017 11017 11018 11018 11019 11019 11020 11020 11020
10930 10937 10941 10944 10948 10951 10953 10957 10959 10961 10963 10966 10968 10971 10973 10974 10976 10978 10980 10982 10984 10986 10988 10989 10990 10991 10992 10992 10993 10994 10995 10996 10997 10997 10997 10998 11000 11002 11003 11004 11005 11006 11007 11008 11009 11010 11011 11012 11012 11013 11014 11014 11014 11014 11014 11015 11015 11016 11016 11017 11018 11018 11018
10927 10931 10934 10937 10942 10945 10948 10952 10955 10957 10960 10962 10964 10968 10970 10972 10974 10975 10977 10979 10982 10983 10985 10986 10988 10988 10989 10990 10990 10991 10992 10993 10994 10994 10995 10996 10997 10999 11000 11001 11002 11003 11004 11005 11006 11007 11008 11009 11010 11011 11011 11012 11011 11012 11012 11013 11013 11014 11014 11015 11015 11016 11016
10923 10926 10928 10932 10937 10941 10945 10948 10950 10953 10956 10958 10961 10964 10966 10968 10970 10972 10974 10976 10978 10980 10981 10983 10984 10986 10987 10987 10988 10988 10989 10990 10991 10992 10993 10994 10995 10996 10997 10998 10999 11000 11001 11002 11003 11004 11005 11006 11007 11008 11008 11009 11009 11009 11009 11010 11011 11011 11012 11012 11012 11013 11014
10917 10919 10922 10927 10933 10937 10941 10944 10946 10949 10952 10955 10957 10960 10961 10963 10966 10968 10970 10972 10974 10976 10977 10979 10981 10982 10983 10984 10984 10985 10987 10988 10989 10990 10991 10992 10992 10993 10994 10994 10995 10996 10998 10999 10999 11001 11002 11003 11004 11005 11005 11006 11006 11006 11007 11007 11008 11009 11009 11009 11009 11010 11011
10907 10911 10914 10920 10927 10932 10937 10940 10942 10945 10948 10950 10953 10955 10957 10959 10961 10963 10966 10969 10970 10972 10974 10975 10977 10979 10980 10981 10982 10983 10984 10985 10986 10987 10988 10988 10989 10989 10990 10991 10992 10993 10994 10995 10996 10997 10999 11000 11000 11001 11002 11003 11003 11003 11004 11005 11006 11006 11006 11006 11006 11007 11007
10900 10905 10910 10917 10924 10930 10934 10937 10940 10942 10944 10946 10948 10951 10953 10954 10957 10959 10962 10965 10967 10969 10970 10972 10973 10975 10976 10977 10978 10980 10981 10982 10983 10984 10984 10985 10986 10986 10987 10987 10988 10989 10990 10991 10992 10994 10995 10996 10997 10998 10999 10999 10999 11000 11001 11002 11003 11003 11003 11003 11003 11003 11004
10895 10900 10906 10912 10917 10922 10927 10931 10934 10937 10939 10941 10943 10945 10948 10949 10952 10955 10958 10961 10963 10965 10967 10968 10970 10971 10972 10974 10975 10976 10977 10978 10979 10980 10980 10981 10982 10982 10983 10984 10985 10985 10986 10987 10988 10990 10991 10992 10993 10994 10995 10996 10996 10997 10997 10999 11000 11000 11000 11000 11000 11000 11000
10890 10895 10901 10907 10911 10917 10922 10924 10927 10930 10932 10935 10938 10940 10942 10944 10947 10950 10953 10956 10959 10961 10963 10965 10966 10968 10969 10971 10971 10972 10973 10975 10975 10976 10977 10977 10978 10979 10980 10980 10981 10982 10982 10983 10985 10986 10987 10988 10989 10990 10991 10992 10993 10993 10994 10995 10996 10997 10997 10996 10996 10996 10996
10886 10892 10897 10902 10906 10912 10917 10919 10921 10924 10926 10929 10932 10933 10936 10939 10942 10945 10948 10952 10956 10958 10959 10961 10962 10964 10965 10966 10967 10968 10970 10970 10971 10972 10973 10974 10974 10975 10976 10976 10977 10978 10979 10980 10981 10982 10982 10983 10985 10986 10987 10988 10988 10989 10990 10991 10992 10993 10993 10993 10993 10992 10992
10881 10886 10892 10896 10900 10905 10910 10912 10915 10918 10920 10923 10924 10926 10930 10934 10937 10940 10943 10947 10950 10953 10955 10956 10958 10960 10961 10962 10963 10964 10965 10966 10967 10968 10969 10970 10970 10971 10972 10972 10973 10974 10975 10976 10976 10977 10978 10979 10980 10982 10983 10983 10984 10984 10986 10986 10987 10988 10989 10989 10989 10988 10987
10875 10880 10885 10890 10895 10900 10904 10906 10910 10912 10914 10916 10918 10921 10925 10929 10932 10936 10939 10942 10945 10948 10951 10952 10953 10955 10956 10957 10958 10959 10961 10962 10963 10964 10964 10965 10966 10967 10967 10968 10968 10969 10970 10971 10972 10972 10973 10975 10976 10977 10978 10979 10980 10980 10981 10982 10982 10983 10984 10984 10984 10983 10982
10868 10873 10878 10883 10888 10893 10897 10901 10905 10907 10908 10909 10912 10916 10920 10923 10928 10932 10935 10937 10941 10944 10946 10947 10949 10950 10951 10952 10953 10954 10956 10957 10958 10959 10960 10961 10962 10962 10963 10963 10964 10965 10966 10967 10968 10968 10969 10970 10971 10973 10974 10975 10976 10976 10976 10977 10977 10977 10979 10979 10978 10978 10977
10861 10867 10872 10877 10881 10886 10891 10896 10899 10901 10901 10903 10906 10911 10915 10919 10924 10927 10930 10933 10935 10938 10941 10943 10944 10945 10945 10946 10948 10949 10951 10952 10954 10955 10955 10956 10957 10958 10959 10959 10960 10961 10962 10963 10963 10964 10964 10966 10967 10968 10969 10970 10971 10971 10972 10972 10972 10972 10973 10973 10972 10972 10971
10856 10862 10867 10870 10875 10879 10884 10889 10892 10894 10894 10896 10901 10906 10910 10915 10919 10922 10925 10928 10930 10933 10936 10937 10938 10939 10940 10942 10944 10945 10946 10947 10949 10950 10951 10952 10952 10954 10955 10955 10956 10957 10958 10958 10959 10959 10960 10961 10962 10963 10964 10965 10966 10967 10967 10967 10967 10967 10967 10967 10967 10966 10965
10850 10856 10860 10864 10869 10873 10878 10882 10885 10886 10887 10890 10895 10901 10906 10910 10914 10917 10920 10922 10924 10927 10929 10930 10932 10934 10935 10937 10939 10939 10940 10942 10944 10945 10946 10947 10948 10950 10950 10951 10952 10953 10953 10954 10955 10955 10956 10957 10957 10958 10959 10961 10962 10962 10962 10962 10962 10961 10961 10961 10961 10961 10961
10842 10848 10854 10858 10863 10867 10871 10875 10878 10879 10881 10886 10891 10897 10902 10906 10909 10911 10914 10916 10919 10921 10922 10924 10927 10929 10930 10932 10933 10933 10935 10938 10939 10941 10942 10944 10945 10946 10946 10947 10948 10948 10948 10949 10950 10951 10951 10952 10953 10953 10954 10956 10957 10957 10957 10957 10957 10956 10956 10956 10956 10957 10957
10833 10840 10847 10852 10856 10861 10865 10868 10871 10872 10876 10882 10887 10891 10896 10900 10902 10904 10907 10910 10913 10914 10916 10920 10923 10923 10924 10926 10928 10929 10931 10933 10935 10936 10938 10940 10941 10941 10942 10943 10943 10944 10944 10945 10946 10946 10946 10947 10948 10948 10949 10950 10951 10951 10951 10951 10951 10951 10951 10952 10952 10953 10953
10824 10831 10838 10845 10850 10855 10858 10861 10865 10867 10871 10877 10881 10886 10891 10893 10895 10897 10900 10903 10906 10909 10912 10915 10916 10918 10919 10921 10923 10924 10927 10929 10930 10932 10934 10935 10936 10937 10938 10939 10939 10939 10940 10940 10941 10941 10942 10942 10943 10943 10944 10944 10945 10945 10945 10945 10946 10947 10947 10948 10948 10949 10949
10815 10822 10831 10838 10843 10847 10851 10856 10859 10862 10867 10871 10875 10880 10884 10885 10887 10891 10893 10896 10901 10906 10908 10909 10911 10913 10915 10916 10918 10920 10922 10924 10926 10928 10929 10930 10931 10932 10933 10934 10934 10934 10935 10936 10936 10936 10937 10937 10937 10938 10938 10938 10939 10939 10939 10940 10941 10942 10942 10943 10944 10944 10945
10806 10814 10823 10830 10834 10839 10845 10850 10854 10858 10862 10866 10870 10874 10876 10878 10881 10883 10886 10891 10897 10900 10901 10903 10906 10908 10909 10911 10913 10915 10917 10919 10921 10923 10924 10925 10926 10927 10928 10929 10929 10929 10930 10930 10931 10931 10931 10932 10932 10932 10933 10933 10933 10934 10934 10934 10935 10936 10937 10938 10939 10940 10940
10799 10807 10816 10822 10827 10833 10840 10844 10848 10852 10856 10860 10863 10866 10869 10872 10875 10877 10881 10887 10891 10893 10895 10899 10901 10902 10903 10905 10908 10910 10912 10915 10917 10918 10919 10920 10921 10922 10923 10924 10925 10924 10924 10925 10926 10926 10926 10926 10927 10927 10927 10927 10928 10928 10929 10929 10930 10931 10932 10933 10934 10935 10935
10792 10801 10810 10815 10821 10827 10833 10838 10842 10846 10850 10854 10857 10859 10862 10865 10868 10872 10876 10880 10883 10887 10890 10894 10895 10895 10897 10900 10902 10905 10908 10910 10911 10913 10914 10915 10916 10917 10918 10919 10920 10920 10920 10920 10921 10921 10921 10921 10922 10922 10922 10922 10922 10923 10924 10924 10925 10926 10927 10928 10928 10929 10930
10786 10795 10803 10808 10814 10820 10826 10831 10835 10839 10843 10847 10850 10853 10856 10859 10863 10866 10870 10873 10877 10881 10884 10886 10887 10888 10890 10894 10897 10900 10903 10905 10906 10907 10908 10909 10911 10912 10913 10913 10914 10914 10915 10915 10916 10916 10916 10916 10917 10917 10917 10917 10917 10918 10919 10919 10919 10921 10922 10922 10922 10923 10925
10780 10789 10796 10802 10808 10813 10819 10824 10828 10833 10837 10840 10844 10848 10851 10854 10857 10860 10863 10867 10871 10874 10876 10878 10880 10882 10884 10888 10892 10894 10897 10899 10900 10901 10902 10904 10906 10907 10907 10908 10908 10909 10910 10911 10911 10911 10911 10911 10911 10912 10912 10912 10912 10913 10913 10913 10914 10915 10916 10917 10917 10917 10919
10773 10782 10789 10796 10802 10807 10813 10817 10821 10825 10830 10833 10837 10842 10845 10848 10851 10855 10858 10862 10865 10867 10869 10871 10874 10875 10879 10882 10885 10888 10891 10893 10894 10895 10897 10899 10900 10901 10901 10902 10903 10904 10905 10905 10905 10905 10906 10906 10906 10906 10906 10907 10908 10907 10907 10908 10909 10909 10910 10911 10911 10912 10912
10768 10775 10782 10789 10795 10801 10805 10809 10814 10818 10821 10825 10830 10834 10837 10841 10845 10850 10854 10856 10858 10860 10862 10865 10868 10870 10873 10876 10880 10883 10886 10886 10888 10890 10891 10893 10895 10895 10895 10896 10897 10898 10899 10899 10899 10900 10900 10901 10901 10901 10901 10903 10902 10901 10901 10903 10904 10904 10904 10905 10906 10906 10906
10764 10769 10775 10781 10787 10793 10798 10802 10806 10810 10813 10817 10822 10827 10831 10834 10839 10844 10849 10851 10851 10853 10856 10859 10862 10864 10867 10871 10875 10878 10880 10881 10882 10884 10886 10887 10889 10889 10889 10890 10891 10892 10893 10893 10893 10894 10895 10895 10895 10895 10896 10897 10897 10896 10896 10897 10898 10898 10899 10899 10900 10900 10900